Location: Ikejouine
(32.5142°N, 5.4699°W)
Time: 06:22:57
(UTC+00:00)

ADEOS Rocket - Visible Passes

Search period start: 11 August 2020 00:00
Search period end: 21 August 2020 00:00
Orbit: 859 x 1306 km, 98.7° (Epoch: 10 August)

Date Brightness Start Highest point End Pass type
(mag) Time Alt. Az. Time Alt. Az. Time Alt. Az.
11 Aug 6.3 03:20:26 10° E 03:24:12 15° ENE 03:28:01 10° NNE visible
11 Aug 3.8 05:00:55 10° SSE 05:08:25 83° ENE 05:16:15 10° N visible
12 Aug 5.1 04:12:58 10° SE 04:19:48 38° ENE 04:26:49 10° N visible
13 Aug 6.2 03:27:02 10° E 03:31:35 17° ENE 03:36:10 10° NNE visible
13 Aug 3.7 05:08:24 10° SSE 05:15:59 86° WSW 05:23:49 10° NNW visible
14 Aug 4.8 04:20:12 10° SE 04:27:18 44° ENE 04:34:32 10° N visible
15 Aug 6.0 03:33:49 10° ESE 03:38:59 20° ENE 03:44:11 10° NNE visible
15 Aug 3.6 05:15:56 10° S 05:23:32 76° WSW 05:31:22 10° NNW visible
16 Aug 4.6 04:27:29 10° SE 04:34:48 51° ENE 04:42:13 10° N visible
17 Aug 5.9 03:40:43 10° ESE 03:46:25 23° ENE 03:52:06 10° NNE visible
18 Aug 4.3 04:34:49 10° SSE 04:42:19 58° ENE 04:49:51 10° N visible
18 Aug 6.3 19:26:50 10° NNW 19:29:58 14° WNW 19:33:00 10° W visible
19 Aug 5.6 03:47:44 10° ESE 03:53:51 27° ENE 03:59:56 10° NNE visible
20 Aug 6.5 03:04:10 10° ENE 03:05:46 11° ENE 03:07:22 10° NE visible
20 Aug 4.1 04:42:13 10° SSE 04:49:50 67° ENE 04:57:28 10° N visible
20 Aug 6.5 19:35:23 10° NW 19:37:17 11° WNW 19:39:07 10° WNW visible
